Weather in Kanchanaburi

Thailand     14°01′19″N   99°31′57″E
temp.,
°C
wind,
m/s
gust,
m/s
humid.,
%
clouds,
%
prec.,
mm/h
press.,
hPa
HPBL,
m
12 april, mon
mon1201:00+27se2472100 2.6 1012166
04:00+27w1174100 0.0 101023
07:00+27w127299 0.0 1012123
10:00+33sse115081 0.0 10131029
13:00+36sse233664 0.1 10102486
16:00+35ese4438100 0.1 10082097
19:00+32se574920 0.2 1009522
22:00+30sse246013 0.0 1012328
13 april, tue
tue1301:00+28sse126521 0.0 101190
04:00+27w227081 0.0 101062
07:00+27w237143 0.0 1011182
10:00+33wsw224678 0.0 10121025
13:00+37ssw323255 0.0 10092530
16:00+38e123094 0.1 10062601
19:00+32sse5653100 0.1 1008746
22:00+30sse345987 0.0 1010463
14 april, wed
wed1401:00+30s226335 0.0 1009196
04:00+28wnw1167100 0.0 100846
07:00+28wnw2269100 0.1 1010223
10:00+34nw234886 0.0 10111218
13:00+36sse1137100 0.4 10092262
16:00+32s4553100 0.3 1006925
19:00+29nw3368100 1.9 1008172
22:00+28nnw1271100 0.7 1011143
15 april, thu
thu1501:00+27w1174100 1.8 101067
04:00+26w1279100 1.1 100969
07:00+26w2278100 1.5 1010199
10:00+31w3454100 0.0 1011911
13:00+34wnw3341100 0.0 10091801
16:00+35e1239100 0.0 10061742
19:00+32sw3452100 0.4 1008223
22:00+25nne71083100 4.7 1011337
16 april, fri
fri1601:00+26sw2582100 5.6 1009252
04:00+26wsw238097 0.0 1008183
07:00+26wsw2377100 0.0 1010233
10:00+31w3353100 0.0 1011909
13:00+35w224088 0.0 10082040
16:00+36ssw123486 0.1 10062527
19:00+27w3678100 3.5 1008216
22:00+27wnw2275100 1.4 1010147